N5SRF Weather Reports


Display with metric or nautical units.
time (UTC)temp
F
wind
direction
speed
MPH
gust
MPH
rain 1hr
in
rain 24hr
in
rain mn
in
humidity
%
barometer
mb
20260904052130 77 184 0.0 0.0 0.00 0.16 0.16 99 1017.5
20260904051626 77 183 0.0 0.0 0.00 0.16 0.16 99 1017.6
20260904051121 77 183 0.0 1.0 0.00 0.16 0.16 99 1017.4
20260904050617 77 183 0.0 0.0 0.00 0.16 0.16 99 1017.4
20260904050113 77 183 0.0 0.0 0.00 0.16 0.16 99 1017.3
20260904045608 77 183 0.0 0.0 0.00 0.16 0.16 99 1017.5
20260904045102 77 183 0.0 0.0 0.00 0.16 0.16 99 1017.7
20260904044558 77 183 0.0 0.0 0.00 0.16 0.16 99 1017.5
20260904044054 77 183 0.0 0.0 0.00 0.16 0.16 99 1017.5
20260904043550 77 184 0.0 0.0 0.00 0.16 0.16 99 1017.6
20260904043046 77 184 0.0 0.0 0.00 0.16 0.16 99 1017.3
20260904042542 78 184 0.0 0.0 0.00 0.16 0.16 99 1017.5
20260904042037 78 184 0.0 0.0 0.00 0.16 0.16 99 1017.5
20260904041533 78 182 0.0 0.0 0.00 0.16 0.16 99 1017.5
20260904041029 78 182 0.0 0.0 0.00 0.16 0.16 99 1017.5
20260904040528 78 162 0.0 0.0 0.00 0.16 0.16 99 1017.3
20260904040025 78 163 0.0 0.0 0.00 0.16 0.16 99 1017.3
20260904035520 78 129 1.0 1.0 0.00 0.16 0.16 99 1017.6
20260904035019 78 181 0.0 0.0 0.00 0.16 0.16 99 1017.5
20260904034514 78 175 1.0 1.0 0.00 0.16 0.16 99 1017.5
20260904034010 78 194 0.0 0.0 0.00 0.16 0.16 99 1017.5
20260904033506 78 170 0.0 0.0 0.00 0.16 0.16 99 1017.3
20260904033003 78 184 1.0 1.0 0.00 0.16 0.16 99 1017.3
20260904032457 78 173 1.0 1.0 0.00 0.16 0.16 99 1017.3
20260904031956 78 168 1.0 1.0 0.00 0.16 0.16 99 1017.3
20260904031452 78 177 0.0 1.0 0.00 0.16 0.16 99 1017.3
20260904030948 78 167 1.0 1.0 0.00 0.16 0.16 99 1017.2
20260904030443 78 199 1.0 1.0 0.00 0.16 0.16 99 1017.2
20260904025937 78 194 0.0 0.0 0.00 0.16 0.16 99 1017.4
20260904025434 78 195 0.0 0.0 0.00 0.16 0.16 99 1017.3
20260904024928 77 195 0.0 1.0 0.00 0.16 0.16 99 1017.2
20260904024424 77 193 0.0 0.0 0.00 0.16 0.16 99 1017.0
20260904023919 77 157 0.0 0.0 0.00 0.16 0.16 99 1017.3
20260904023416 77 136 1.0 2.0 0.00 0.16 0.16 99 1017.1
20260904022915 77 161 0.0 0.0 0.00 0.16 0.16 99 1017.4
20260904022412 77 178 0.0 0.0 0.00 0.16 0.16 99 1017.0
20260904021907 77 178 0.0 0.0 0.00 0.16 0.16 99 1017.1
20260904021402 77 179 0.0 0.0 0.00 0.16 0.16 99 1017.0
20260904020852 77 178 0.0 0.0 0.00 0.16 0.16 99 1017.0
20260904020347 77 178 0.0 0.0 0.00 0.16 0.16 99 1016.9
20260904015846 77 178 0.0 0.0 0.00 0.16 0.16 99 1016.9
20260904015342 77 180 0.0 0.0 0.00 0.16 0.16 99 1016.8
20260904014839 77 160 0.0 0.0 0.00 0.16 0.16 99 1016.6
20260904014329 77 160 0.0 0.0 0.00 0.16 0.16 99 1016.7
20260904013825 77 159 0.0 0.0 0.00 0.16 0.16 99 1016.4
20260904013321 77 159 1.0 1.0 0.00 0.16 0.16 99 1016.4
20260904012817 77 154 1.0 1.0 0.00 0.16 0.16 99 1016.4
20260904012311 77 129 1.0 2.0 0.00 0.16 0.16 99 1016.4
20260904011810 77 168 0.0 1.0 0.00 0.16 0.16 99 1016.5
20260904011305 77 164 1.0 1.0 0.00 0.16 0.16 99 1016.4
20260904010800 77 164 0.0 1.0 0.00 0.16 0.16 99 1016.3
20260904010256 77 156 1.0 1.0 0.00 0.16 0.16 99 1016.4
20260904005751 77 161 0.0 0.0 0.00 0.16 0.16 99 1016.3
20260904005247 77 165 0.0 0.0 0.00 0.16 0.16 99 1016.3
20260904004742 77 165 0.0 0.0 0.00 0.16 0.16 99 1016.5
20260904004238 77 169 0.0 0.0 0.00 0.16 0.16 99 1016.6
20260904003732 77 199 0.0 0.0 0.00 0.16 0.16 99 1016.5
20260904003229 77 199 0.0 0.0 0.00 0.16 0.16 99 1016.5
20260904002724 78 200 0.0 0.0 0.00 0.16 0.16 99 1016.6
20260904002220 78 170 0.0 0.0 0.00 0.16 0.16 99 1016.4
20260904001715 78 205 0.0 0.0 0.00 0.16 0.16 99 1016.4
20260904001214 78 193 0.0 0.0 0.00 0.16 0.16 99 1016.4
20260904000709 78 193 0.0 0.0 0.00 0.16 0.16 99 1016.5
20260904000204 78 191 0.0 0.0 0.00 0.16 0.16 98 1016.3
20260903235703 78 175 0.0 1.0 0.00 0.16 0.16 98 1016.4
20260903235200 78 174 0.0 0.0 0.00 0.16 0.16 99 1016.4
20260903234654 78 174 0.0 1.0 0.00 0.16 0.16 99 1016.5
20260903234151 79 174 0.0 1.0 0.00 0.16 0.16 99 1016.5
20260903233646 78 172 0.0 1.0 0.00 0.16 0.16 98 1016.3
20260903233143 78 174 0.0 0.0 0.00 0.16 0.16 99 1016.5
20260903232636 78 172 0.0 0.0 0.00 0.16 0.16 99 1016.5
20260903232132 79 174 0.0 0.0 0.00 0.16 0.16 99 1016.7
20260903231631 79 175 0.0 0.0 0.00 0.16 0.16 99 1016.5
20260903231131 78 170 0.0 1.0 0.00 0.16 0.16 99 1016.4
20260903230627 78 150 1.0 1.0 0.00 0.16 0.16 99 1016.5
20260903230126 79 154 0.0 0.0 0.00 0.16 0.16 99 1016.4
20260903225624 79 158 0.0 0.0 0.00 0.16 0.16 99 1016.8
20260903225120 79 158 1.0 1.0 0.00 0.16 0.16 99 1016.7
20260903224616 79 162 0.0 0.0 0.00 0.16 0.16 99 1016.8
20260903224112 79 162 0.0 0.0 0.00 0.16 0.16 99 1016.8
20260903223607 78 161 0.0 0.0 0.00 0.16 0.16 99 1017.0
20260903223105 78 173 0.0 1.0 0.05 0.16 0.16 99 1016.9
20260903222600 79 150 1.0 1.0 0.05 0.16 0.16 99 1017.1
20260903222059 78 160 0.0 0.0 0.07 0.15 0.15 99 1017.1
20260903221555 78 159 1.0 2.0 0.07 0.15 0.15 99 1017.3
20260903221052 78 173 1.0 1.0 0.00 0.14 0.14 99 1017.2
20260903220552 78 177 0.0 1.0 0.00 0.14 0.14 99 1017.5
20260903220051 78 162 0.0 1.0 0.00 0.14 0.14 99 1017.4
20260903215550 78 157 0.0 1.0 0.07 0.14 0.14 99 1017.4
20260903215049 78 160 0.0 1.0 0.07 0.14 0.14 99 1017.5
20260903214544 78 169 1.0 1.0 0.00 0.13 0.13 99 1017.3
20260903214039 78 170 0.0 0.0 0.00 0.13 0.13 99 1017.4
20260903213535 77 170 0.0 0.0 0.00 0.13 0.13 99 1017.3
20260903213030 78 170 0.0 0.0 0.00 0.13 0.13 99 1017.3
20260903212526 77 169 0.0 1.0 0.00 0.13 0.13 99 1017.5
20260903212021 77 169 0.0 0.0 0.00 0.13 0.13 99 1017.5
20260903211516 77 169 0.0 0.0 0.00 0.13 0.13 99 1017.6
20260903211013 77 168 0.0 1.0 0.00 0.13 0.13 99 1017.6
20260903210513 77 170 1.0 1.0 0.05 0.13 0.13 99 1018.0
20260903210008 77 180 0.0 0.0 0.12 0.13 0.13 98 1017.7
20260903205502 77 169 1.0 1.0 0.24 0.12 0.12 98 1018.1
20260903204956 78 127 2.0 2.0 0.40 0.11 0.11 97 1018.1
20260903204453 80 147 2.0 2.0 0.19 0.06 0.06 96 1018.1
20260903203948 81 177 0.0 0.0 0.12 0.04 0.04 95 1018.0
20260903203444 82 160 1.0 1.0 0.05 0.03 0.03 94 1018.2
20260903202942 82 162 0.0 0.0 0.07 0.02 0.02 91 1018.4
20260903202438 83 162 1.0 1.0 0.07 0.02 0.02 90 1018.5
20260903201933 82 160 0.0 0.0 0.00 0.01 0.01 88 1018.6
20260903201429 82 158 0.0 1.0 0.00 0.01 0.01 88 1018.6
20260903200927 83 128 1.0 2.0 0.00 0.01 0.01 88 1018.6
20260903200423 83 105 1.0 1.0 0.00 0.01 0.01 86 1018.4
20260903195917 84 81 1.0 3.0 0.00 0.01 0.01 85 1018.2
20260903195414 84 55 1.0 2.0 0.00 0.01 0.01 85 1018.3
20260903194909 84 142 2.0 2.0 0.00 0.01 0.01 85 1018.5
20260903194404 84 32 2.0 2.0 0.00 0.01 0.01 85 1018.4
20260903193859 84 91 2.0 5.0 0.00 0.01 0.01 85 1018.2
20260903193355 86 78 3.0 7.0 0.00 0.01 0.01 84 1018.2
20260903192844 86 48 2.0 2.0 0.00 0.01 0.01 82 1018.4
20260903192340 86 168 0.0 0.0 0.00 0.01 0.01 82 1018.3
20260903191836 87 141 0.0 0.0 0.00 0.01 0.01 82 1018.5
20260903191332 87 301 2.0 2.0 0.00 0.01 0.01 82 1018.3
20260903190831 87 154 0.0 1.0 0.00 0.01 0.01 83 1018.4
20260903190326 87 188 2.0 2.0 0.00 0.01 0.01 82 1018.4
20260903185820 87 123 1.0 1.0 0.00 0.01 0.01 84 1018.6
20260903185315 86 23 2.0 3.0 0.00 0.01 0.01 84 1018.6
20260903184811 86 51 1.0 1.0 0.00 0.01 0.01 85 1018.6
20260903184308 86 248 2.0 2.0 0.00 0.01 0.01 84 1018.5
20260903183802 86 308 3.0 3.0 0.00 0.01 0.01 86 1018.6
20260903183256 86 333 4.0 5.0 0.00 0.01 0.01 87 1018.7
20260903182755 85 338 3.0 3.0 0.00 0.01 0.01 87 1018.7
20260903182250 84 311 3.0 3.0 0.00 0.01 0.01 88 1018.8
20260903181749 84 197 1.0 1.0 0.00 0.01 0.01 90 1019.1
20260903181245 84 321 3.0 5.0 0.00 0.01 0.01 90 1019.2
20260903180740 84 163 2.0 2.0 0.00 0.01 0.01 90 1019.2
20260903180238 85 265 2.0 2.0 0.00 0.01 0.01 89 1019.8
20260903175733 84 166 1.0 1.0 0.00 0.01 0.01 91 1019.4
20260903175232 83 102 1.0 2.0 0.00 0.01 0.01 92 1019.5
20260903174731 84 13 3.0 3.0 0.00 0.01 0.01 92 1019.6
20260903174227 84 14 1.0 1.0 0.00 0.01 0.01 92 1019.7
20260903173722 83 178 1.0 2.0 0.00 0.01 0.01 93 1019.6
20260903173217 82 148 1.0 2.0 0.00 0.01 0.01 93 1019.7
20260903172712 82 104 4.0 5.0 0.00 0.01 0.01 93 1019.8
20260903172207 82 91 1.0 2.0 0.00 0.01 0.01 93 1019.8
20260903171702 82 194 2.0 3.0 0.00 0.01 0.01 93 1019.9
20260903171159 82 52 1.0 2.0 0.00 0.01 0.01 94 1019.8
20260903170657 82 85 1.0 1.0 0.00 0.01 0.01 94 1019.8
20260903170153 83 136 1.0 2.0 0.00 0.01 0.01 94 1019.6
20260903165650 82 211 2.0 3.0 0.00 0.01 0.01 95 1019.7
20260903165146 82 94 3.0 3.0 0.00 0.01 0.01 95 1020.0
20260903164645 81 60 1.0 2.0 0.00 0.01 0.01 96 1020.0
20260903164136 81 85 3.0 3.0 0.00 0.01 0.01 96 1020.0
20260903163630 82 168 1.0 1.0 0.00 0.01 0.01 97 1019.9
20260903163127 82 121 2.0 2.0 0.00 0.01 0.01 97 1019.9
20260903162623 82 109 1.0 1.0 0.00 0.01 0.01 98 1019.7
20260903162118 82 143 1.0 1.0 0.00 0.01 0.01 99 1019.5
20260903161613 81 169 0.0 0.0 0.00 0.01 0.01 99 1019.7
20260903161108 82 230 1.0 2.0 0.00 0.01 0.01 99 1019.6
20260903160603 81 167 0.0 0.0 0.00 0.01 0.01 99 1019.5
20260903160057 81 165 1.0 1.0 0.00 0.01 0.01 99 1019.5
20260903155556 81 192 1.0 1.0 0.00 0.01 0.01 99 1019.2
20260903155051 81 125 1.0 1.0 0.00 0.01 0.01 99 1019.2
20260903154548 81 134 1.0 1.0 0.00 0.01 0.01 99 1019.1
20260903154044 80 161 0.0 0.0 0.00 0.01 0.01 99 1019.0
20260903153539 80 161 0.0 0.0 0.00 0.01 0.01 99 1018.8
20260903153035 80 170 1.0 1.0 0.00 0.01 0.01 99 1018.8
20260903152530 80 208 0.0 0.0 0.00 0.01 0.01 99 1018.9
20260903152027 79 205 1.0 1.0 0.00 0.01 0.01 99 1019.0
20260903151525 79 222 1.0 1.0 0.00 0.01 0.01 99 1019.1
20260903151021 80 164 0.0 0.0 0.00 0.01 0.01 99 1019.2
20260903150521 79 164 0.0 0.0 0.00 0.01 0.01 99 1019.5
20260903150016 79 164 0.0 0.0 0.00 0.01 0.01 99 1019.4
20260903145510 79 172 1.0 1.0 0.00 0.01 0.01 99 1019.4
20260903145006 78 172 0.0 0.0 0.00 0.01 0.01 99 1019.7
20260903144505 79 173 0.0 1.0 0.00 0.01 0.01 99 1019.7
20260903144001 78 178 0.0 0.0 0.00 0.01 0.01 99 1019.8
20260903143457 78 178 0.0 0.0 0.00 0.01 0.01 99 1019.8
20260903142953 78 178 0.0 0.0 0.00 0.01 0.01 99 1019.7
20260903142448 78 157 0.0 1.0 0.00 0.01 0.01 99 1019.6
20260903141944 78 167 0.0 1.0 0.00 0.01 0.01 99 1019.5
20260903141439 78 182 0.0 0.0 0.00 0.01 0.01 99 1019.5
20260903140935 78 146 1.0 1.0 0.00 0.01 0.01 99 1019.6
20260903140430 78 146 0.0 0.0 0.00 0.01 0.01 99 1019.5
20260903135925 77 146 0.0 0.0 0.00 0.01 0.01 99 1019.8
20260903135421 77 146 1.0 1.0 0.00 0.01 0.01 99 1019.6
20260903134920 77 146 0.0 1.0 0.00 0.01 0.01 99 1019.6
20260903134414 77 146 0.0 0.0 0.00 0.01 0.01 99 1019.4
20260903133912 77 146 0.0 0.0 0.00 0.01 0.01 99 1019.5
20260903133408 77 146 1.0 1.0 0.00 0.01 0.01 99 1019.6
20260903132903 77 147 0.0 0.0 0.00 0.01 0.01 99 1019.1
20260903132359 76 146 0.0 0.0 0.00 0.01 0.01 99 1019.4
20260903131859 76 146 0.0 0.0 0.00 0.01 0.01 99 1019.0
20260903131353 76 146 0.0 0.0 0.00 0.01 0.01 99 1019.4
20260903130852 76 146 0.0 0.0 0.00 0.01 0.01 99 1019.6
20260903130347 76 146 0.0 0.0 0.00 0.01 0.01 99 1019.6
20260903125846 76 146 1.0 1.0 0.00 0.01 0.01 99 1019.6
20260903125341 75 146 0.0 0.0 0.00 0.01 0.01 99 1019.2
20260903124840 75 146 0.0 0.0 0.00 0.01 0.01 99 1019.4
20260903124336 76 146 0.0 0.0 0.00 0.01 0.01 99 1019.5
20260903123835 76 146 0.0 0.0 0.00 0.01 0.01 99 1019.1
20260903123329 76 146 0.0 0.0 0.00 0.01 0.01 99 1019.0
20260903122828 76 145 0.0 0.0 0.00 0.01 0.01 99 1018.6
20260903122323 76 145 0.0 0.0 0.00 0.01 0.01 99 1018.5
20260903121822 76 145 0.0 0.0 0.00 0.01 0.01 99 1018.5
20260903121317 76 145 0.0 0.0 0.00 0.01 0.01 99 1018.4
20260903120813 76 145 0.0 0.0 0.00 0.01 0.01 99 1018.5
20260903120312 76 143 0.0 1.0 0.00 0.01 0.01 99 1018.5
20260903115810 76 155 0.0 0.0 0.00 0.01 0.01 99 1018.3
20260903115306 77 137 0.0 1.0 0.00 0.01 0.01 99 1018.4
20260903114805 77 174 0.0 0.0 0.00 0.01 0.01 99 1018.4
20260903114301 77 186 0.0 0.0 0.00 0.01 0.01 99 1018.4
20260903113756 77 186 0.0 0.0 0.00 0.01 0.01 99 1018.3
20260903113252 77 186 0.0 0.0 0.00 0.01 0.01 99 1018.0
20260903112748 77 158 0.0 0.0 0.00 0.01 0.01 99 1018.2
20260903112243 77 159 0.0 0.0 0.00 0.01 0.01 99 1018.0
20260903111742 77 170 1.0 1.0 0.00 0.01 0.01 99 1017.9
20260903111237 77 158 1.0 1.0 0.07 0.01 0.01 99 1018.1
20260903110733 77 159 0.0 0.0 0.07 0.01 0.01 99 1017.9
20260903110229 77 159 0.0 0.0 0.00 0.00 0.00 99 1018.1
20260903105728 77 160 0.0 0.0 0.00 0.00 0.00 99 1018.0
20260903105224 77 162 0.0 0.0 0.00 0.00 0.00 99 1017.9
20260903104723 77 147 0.0 1.0 0.00 0.00 0.00 99 1017.9
20260903104219 77 168 0.0 0.0 0.00 0.00 0.00 99 1017.9
20260903103714 77 172 0.0 0.0 0.00 0.00 0.00 99 1018.0
20260903103211 77 100 2.0 2.0 0.00 0.00 0.00 99 1017.8
20260903102706 77 173 0.0 0.0 0.00 0.00 0.00 99 1017.7
20260903102206 77 156 1.0 1.0 0.00 0.00 0.00 99 1017.6
20260903101704 77 161 0.0 0.0 0.00 0.00 0.00 99 1017.8
20260903101200 77 186 1.0 1.0 0.00 0.00 0.00 99 1017.8
20260903100700 77 185 2.0 2.0 0.00 0.00 0.00 99 1017.7
20260903100200 77 148 0.0 0.0 0.00 0.00 0.00 99 1017.8
20260903095657 77 148 0.0 0.0 0.00 0.00 0.00 99 1017.8
20260903095152 77 148 0.0 0.0 0.00 0.00 0.00 99 1017.9
20260903094648 77 148 0.0 0.0 0.00 0.00 0.00 99 1017.6
20260903094143 77 148 0.0 0.0 0.00 0.00 0.00 99 1017.8
20260903093637 77 148 0.0 0.0 0.00 0.00 0.00 99 1017.7
20260903093132 77 148 0.0 0.0 0.00 0.00 0.00 99 1017.8
20260903092627 77 148 0.0 1.0 0.00 0.00 0.00 99 1017.7
20260903092122 77 149 0.0 0.0 0.00 0.00 0.00 99 1017.6
20260903091620 77 151 0.0 0.0 0.00 0.00 0.00 99 1017.8
20260903091115 77 151 0.0 0.0 0.00 0.00 0.00 99 1017.3
20260903090611 77 151 0.0 0.0 0.00 0.00 0.00 99 1017.6
20260903090109 77 151 0.0 0.0 0.00 0.00 0.00 99 1017.7
20260903085608 77 151 0.0 0.0 0.00 0.00 0.00 99 1017.2
20260903085104 77 151 0.0 0.0 0.00 0.00 0.00 99 1017.4
20260903084602 77 150 0.0 1.0 0.00 0.00 0.00 99 1017.5
20260903084057 77 155 0.0 0.0 0.00 0.00 0.00 99 1017.6
20260903083552 77 155 0.0 0.0 0.00 0.00 0.00 99 1017.5
20260903083052 77 155 0.0 0.0 0.00 0.00 0.00 99 1017.4
20260903082546 77 155 0.0 0.0 0.00 0.00 0.00 99 1017.5
20260903082042 77 155 0.0 0.0 0.00 0.00 0.00 99 1017.5
20260903081537 77 154 0.0 0.0 0.00 0.00 0.00 99 1017.5
20260903081032 77 155 0.0 0.0 0.00 0.00 0.00 99 1017.3
20260903080529 77 154 0.0 0.0 0.00 0.00 0.00 99 1017.5
20260903080026 77 153 1.0 1.0 0.00 0.00 0.00 99 1017.3
20260903075520 77 161 0.0 0.0 0.00 0.00 0.00 99 1017.6
20260903075015 77 130 1.0 1.0 0.00 0.00 0.00 99 1017.3
20260903074514 77 186 0.0 0.0 0.00 0.00 0.00 99 1017.3
20260903074009 77 172 0.0 0.0 0.00 0.00 0.00 99 1017.4
20260903073504 77 169 0.0 0.0 0.00 0.00 0.00 99 1017.6
20260903073000 77 158 1.0 1.0 0.00 0.00 0.00 99 1017.3
20260903072455 77 164 2.0 2.0 0.00 0.00 0.00 99 1017.4
20260903071952 77 156 1.0 1.0 0.00 0.00 0.00 99 1017.3
20260903071449 77 162 1.0 1.0 0.00 0.00 0.00 99 1017.4
20260903070944 77 182 0.0 1.0 0.00 0.00 0.00 99 1017.2
20260903070444 77 78 2.0 3.0 0.00 0.00 0.00 99 1017.3
20260903065943 77 167 0.0 0.0 0.00 0.00 0.00 99 1017.3
20260903065438 77 124 3.0 5.0 0.00 0.00 0.00 99 1017.6
20260903064937 77 202 2.0 2.0 0.00 0.00 0.00 99 1017.7
20260903064432 77 154 3.0 5.0 0.00 0.00 0.00 99 1017.6
20260903063923 77 175 2.0 3.0 0.00 0.00 0.00 99 1017.6
20260903063418 77 173 4.0 6.0 0.00 0.00 0.00 99 1017.5
20260903062913 77 171 1.0 2.0 0.00 0.00 0.00 99 1017.6
20260903062408 77 136 1.0 2.0 0.00 0.00 0.00 99 1017.5
20260903061904 77 84 2.0 2.0 0.00 0.00 0.00 99 1017.6
20260903061403 77 122 1.0 1.0 0.00 0.00 0.00 99 1017.7
20260903060859 77 173 2.0 2.0 0.00 0.00 0.00 99 1018.1
20260903060358 77 181 3.0 3.0 0.00 0.00 0.00 99 1018.0
20260903055856 77 161 2.0 2.0 0.00 2.59 2.59 99 1018.2
20260903055354 77 180 2.0 3.0 0.00 2.59 2.59 99 1018.2
20260903054849 77 161 3.0 3.0 0.00 2.59 2.59 99 1018.1
20260903054344 77 99 1.0 2.0 0.00 2.59 2.59 99 1018.2
20260903053841 76 187 1.0 1.0 0.00 2.59 2.59 99 1018.3
20260903053335 76 164 2.0 2.0 0.00 2.59 2.59 99 1018.3
20260903052832 76 193 0.0 1.0 0.00 2.59 2.59 99 1018.4